Weather History for Aurora, NE

Change the Weather History Date:

Thursday, January 3, 2013

  Actual Average Record
Temperature  
Mean Temperature 20 °F -  
Max Temperature 27 °F 31 °F 60 °F (1964)
Min Temperature 13 °F 11 °F -9 °F (1968)
Degree Days  
Heating Degree Days 45    
Moisture  
Dew Point 19 °F    
Average Humidity 83    
Maximum Humidity 93    
Minimum Humidity 69    
Precipitation  
Precipitation 0.00 in - - ()
Sea Level Pressure  
Sea Level Pressure 30.31 in    
Wind  
Wind Speed 8 mph (West)    
Max Wind Speed 14 mph    
Max Gust Speed -    
Visibility 10 miles    
Events      
Averages and records for this station are not official NWS values.
T = Trace of Precipitation, MM = Missing Value Source: NWS Daily Summary

Daily Weather History Graph

Daily Weather History Graph

Search for Another Location

Airport:

Trip Planner

Search our weather history database for the weather conditions in past years. The results will help you decide how hot, cold, wet, or windy it might be!

Date:

Astronomy

Jan. 03, 2013 Rise Set
Actual Time 7:56 AM CST 5:16 PM CST
Civil Twilight 7:25 AM CST 5:47 PM CST
Nautical Twilight 6:51 AM CST 6:22 PM CST
Astronomical Twilight 6:18 AM CST 6:55 PM CST
Moon 11:56 PM CST (1/3) 11:06 AM CST (1/3)
Length of Visible Light 10h 21m
Length of Day
9h 20m
Waning Gibbous, 65% of the Moon is Illuminated
Jan 3
Waning Gibbous
Jan 4
Last Quarter
Jan 11
New
Jan 18
First Quarter
Jan 26
Full

Hourly Weather History & Observations

Time (CST) Temp. Windchill Dew Point Humidity Pressure Visibility Wind Dir Wind Speed Gust Speed Precip Events Conditions
12:15 AM 26.4 °F 16.0 °F 21.9 °F 83% 30.24 in 10.0 mi NW 11.5 mph - N/A   Scattered Clouds
12:35 AM 24.8 °F 16.1 °F 21.6 °F 87% 30.24 in 10.0 mi NW 8.1 mph - N/A   Mostly Cloudy
12:55 AM 25.0 °F 16.3 °F 22.5 °F 90% 30.24 in 10.0 mi NW 8.1 mph - N/A   Overcast
1:15 AM 24.6 °F 15.1 °F 21.7 °F 89% 30.24 in 10.0 mi NW 9.2 mph - N/A   Mostly Cloudy
1:55 AM 21.7 °F 11.5 °F 18.5 °F 87% 30.25 in 10.0 mi WNW 9.2 mph - N/A   Scattered Clouds
2:15 AM 20.5 °F 10.8 °F 17.6 °F 89% 30.27 in 10.0 mi WNW 8.1 mph - N/A   Mostly Cloudy
2:35 AM 22.3 °F 11.5 °F 19.6 °F 89% 30.27 in 10.0 mi West 10.4 mph - N/A   Overcast
2:55 AM 23.2 °F 13.3 °F 19.6 °F 86% 30.29 in 10.0 mi WNW 9.2 mph - N/A   Overcast
3:15 AM 23.9 °F 15.0 °F 20.3 °F 86% 30.29 in 10.0 mi WNW 8.1 mph - N/A   Overcast
3:35 AM 24.6 °F 15.8 °F 20.8 °F 86% 30.29 in 10.0 mi WNW 8.1 mph - N/A   Overcast
3:55 AM 24.8 °F 16.9 °F 21.0 °F 86% 30.29 in 10.0 mi WNW 6.9 mph - N/A   Overcast
4:15 AM 25.2 °F 19.5 °F 21.4 °F 86% 30.29 in 10.0 mi WNW 4.6 mph - N/A   Overcast
4:35 AM 27.0 °F 17.3 °F 21.6 °F 80% 30.30 in 10.0 mi NW 10.4 mph - N/A   Overcast
4:55 AM 27.0 °F 19.5 °F 21.9 °F 81% 30.30 in 10.0 mi NW 6.9 mph - N/A   Overcast
5:15 AM 26.6 °F 19.1 °F 22.6 °F 85% 30.30 in 10.0 mi NW 6.9 mph - N/A   Overcast
5:35 AM 26.4 °F 19.8 °F 23.0 °F 87% 30.30 in 10.0 mi NW 5.8 mph - N/A   Overcast
5:55 AM 26.6 °F 19.1 °F 23.4 °F 88% 30.30 in 10.0 mi WNW 6.9 mph - N/A   Overcast
6:15 AM 26.4 °F 18.9 °F 23.5 °F 89% 30.31 in 10.0 mi WNW 6.9 mph - N/A   Overcast
6:35 AM 26.2 °F 18.6 °F 23.7 °F 90% 30.31 in 10.0 mi WNW 6.9 mph - N/A   Overcast
6:55 AM 26.2 °F 18.6 °F 23.9 °F 91% 30.31 in 10.0 mi WNW 6.9 mph - N/A   Overcast
7:15 AM 26.6 °F 19.1 °F 24.4 °F 92% 30.32 in 10.0 mi WNW 6.9 mph - N/A   Overcast
7:35 AM 26.6 °F 17.5 °F 24.8 °F 93% 30.32 in 10.0 mi WNW 9.2 mph - N/A   Overcast
7:55 AM 27.3 °F 17.7 °F 24.8 °F 90% 30.33 in 10.0 mi NW 10.4 mph - N/A   Overcast
8:15 AM 27.5 °F 16.8 °F 24.8 °F 90% 30.34 in 10.0 mi NW 12.7 mph - N/A   Overcast
8:35 AM 27.5 °F 16.3 °F 25.0 °F 90% 30.35 in 7.0 mi NNW 13.8 mph - N/A   Overcast
8:55 AM 27.1 °F 15.9 °F 24.6 °F 90% 30.36 in 10.0 mi North 13.8 mph - N/A   Overcast
9:35 AM 26.6 °F 18.2 °F 23.0 °F 86% 30.37 in 10.0 mi North 8.1 mph - N/A   Overcast
9:55 AM 26.6 °F 16.8 °F 22.6 °F 85% 30.37 in 10.0 mi North 10.4 mph - N/A   Overcast
10:15 AM 25.2 °F 14.4 °F 21.0 °F 84% 30.39 in 10.0 mi North 11.5 mph - N/A   Overcast
10:35 AM 25.3 °F 16.0 °F 20.8 °F 83% 30.39 in 10.0 mi North 9.2 mph - N/A   Overcast
10:55 AM 25.3 °F 15.3 °F 20.1 °F 81% 30.39 in 10.0 mi North 10.4 mph - N/A   Overcast
11:15 AM 25.7 °F 18.0 °F 19.8 °F 78% 30.39 in 10.0 mi North 6.9 mph - N/A   Overcast
11:35 AM 25.5 °F 19.9 °F 19.0 °F 76% 30.38 in 10.0 mi North 4.6 mph - N/A   Overcast
11:55 AM 26.1 °F 19.4 °F 19.2 °F 75% 30.37 in 10.0 mi North 5.8 mph - N/A   Scattered Clouds
12:15 PM 26.2 °F 20.7 °F 19.8 °F 76% 30.37 in 10.0 mi NNW 4.6 mph - N/A   Clear
12:35 PM 26.1 °F 20.5 °F 20.3 °F 79% 30.36 in 10.0 mi NW 4.6 mph - N/A   Scattered Clouds
12:55 PM 27.3 °F 22.0 °F 21.0 °F 77% 30.35 in 10.0 mi NW 4.6 mph - N/A   Mostly Cloudy
1:35 PM 27.3 °F 20.9 °F 19.4 °F 72% 30.34 in 10.0 mi West 5.8 mph - N/A   Clear
1:55 PM 27.9 °F 22.6 °F 19.6 °F 71% 30.32 in 10.0 mi WSW 4.6 mph - N/A   Clear
2:15 PM 27.9 °F 21.5 °F 19.8 °F 72% 30.32 in 10.0 mi West 5.8 mph - N/A   Clear
2:35 PM 27.7 °F 22.4 °F 19.0 °F 70% 30.32 in 10.0 mi WSW 4.6 mph - N/A   Clear
2:55 PM 27.5 °F 22.2 °F 18.7 °F 69% 30.32 in 10.0 mi WSW 4.6 mph - N/A   Clear
3:15 PM 27.3 °F 20.9 °F 19.0 °F 71% 30.32 in 10.0 mi SW 5.8 mph - N/A   Clear
3:35 PM 26.6 °F 19.1 °F 19.0 °F 73% 30.33 in 10.0 mi SW 6.9 mph - N/A   Clear
3:55 PM 26.2 °F 17.8 °F 18.5 °F 73% 30.32 in 10.0 mi SW 8.1 mph - N/A   Clear
4:15 PM 25.7 °F 17.1 °F 18.5 °F 74% 30.32 in 10.0 mi SW 8.1 mph - N/A   Clear
4:35 PM 24.8 °F 16.1 °F 18.1 °F 76% 30.32 in 10.0 mi SW 8.1 mph - N/A   Clear
4:55 PM 23.7 °F 14.7 °F 17.4 °F 77% 30.31 in 10.0 mi SW 8.1 mph - N/A   Clear
5:15 PM 22.6 °F 14.3 °F 16.5 °F 77% 30.32 in 10.0 mi SW 6.9 mph - N/A   Clear
5:35 PM 21.4 °F 13.8 °F 15.6 °F 78% 30.32 in 10.0 mi SW 5.8 mph - N/A   Clear
5:55 PM 19.2 °F 12.5 °F 14.4 °F 81% 30.32 in 10.0 mi WSW 4.6 mph - N/A   Clear
6:15 PM 19.4 °F 11.5 °F 14.9 °F 83% 30.32 in 10.0 mi SSW 5.8 mph - N/A   Clear
6:35 PM 19.2 °F 11.3 °F 14.7 °F 83% 30.32 in 10.0 mi SW 5.8 mph - N/A   Clear
6:55 PM 16.7 °F 8.3 °F 12.7 °F 84% 30.32 in 10.0 mi SW 5.8 mph - N/A   Clear
7:15 PM 16.5 °F 8.1 °F 12.7 °F 85% 30.32 in 10.0 mi SW 5.8 mph - N/A   Clear
7:35 PM 16.0 °F 6.3 °F 12.2 °F 85% 30.32 in 10.0 mi SW 6.9 mph - N/A   Clear
7:55 PM 15.6 °F 4.9 °F 12.4 °F 87% 30.31 in 10.0 mi SW 8.1 mph - N/A   Clear
8:15 PM 15.1 °F 3.3 °F 12.0 °F 88% 30.31 in 10.0 mi SW 9.2 mph - N/A   Clear
8:35 PM 16.2 °F 3.9 °F 13.1 °F 88% 30.30 in 10.0 mi SW 10.4 mph - N/A   Clear
8:55 PM 15.6 °F 4.0 °F 12.6 °F 88% 30.30 in 10.0 mi SW 9.2 mph - N/A   Clear
9:15 PM 15.3 °F 3.5 °F 12.4 °F 88% 30.30 in 10.0 mi SW 9.2 mph - N/A   Clear
9:35 PM 15.8 °F 3.4 °F 12.6 °F 87% 30.29 in 10.0 mi SW 10.4 mph - N/A   Clear
9:55 PM 14.5 °F 2.7 °F 11.5 °F 88% 30.29 in 10.0 mi SW 9.2 mph - N/A   Clear
10:15 PM 14.9 °F 3.1 °F 11.8 °F 88% 30.29 in 10.0 mi SW 9.2 mph - N/A   Clear
10:35 PM 13.8 °F 2.7 °F 10.8 °F 88% 30.29 in 10.0 mi SW 8.1 mph - N/A   Clear
10:55 PM 13.8 °F 1.8 °F 10.9 °F 88% 30.29 in 10.0 mi SW 9.2 mph - N/A   Clear
11:15 PM 14.4 °F 0.9 °F 11.3 °F 88% 30.28 in 10.0 mi SW 11.5 mph - N/A   Clear
11:35 PM 14.4 °F 2.4 °F 11.3 °F 88% 30.28 in 10.0 mi SW 9.2 mph - N/A   Clear
11:55 PM 14.2 °F 2.2 °F 11.7 °F 90% 30.28 in 10.0 mi SW 9.2 mph - N/A   Clear